This is the latest recevied weather packets stored in our database for station/object WIII. If no packets are shown the sender has not sent any weather packets the latest 1 day(s).
| Time | Temp. | Humidity | Pressure | Rain* | Wind** | Luminosity | Snow |
|---|---|---|---|---|---|---|---|
| 1778064828 | 30° C | 74% | 1006 hPa | - | - | - | - |
| 1778062429 | 30° C | 74% | 1006 hPa | - | - | - | - |
| 1778061830 | 30.56° C | 70% | 1006 hPa | - | - | - | - |
| 1778061231 | 30.56° C | 70% | 1006 hPa | - | - | - | - |
| 1778060030 | 30.56° C | 70% | 1005 hPa | - | - | - | - |
| 1778059428 | 30.56° C | 70% | 1005 hPa | - | - | - | - |
| 1778058829 | 30.56° C | 70% | 1005 hPa | - | - | - | - |
| 1778057631 | 31.67° C | 66% | 1005 hPa | - | - | - | - |
| 1778056429 | 31.67° C | 70% | 1005 hPa | - | - | - | - |
| 1778055226 | 31.67° C | 70% | 1005 hPa | - | - | - | - |
| 1778052828 | 31.67° C | 70% | 1006 hPa | - | - | - | - |
| 1778052228 | 31.67° C | 70% | 1006 hPa | - | - | - | - |
| 1778051629 | 31.67° C | 70% | 1006 hPa | - | - | - | - |
| 1778050425 | 31.67° C | 70% | 1006 hPa | - | - | - | - |
| 1778049826 | 31.67° C | 70% | 1006 hPa | - | - | - | - |
| 1778048628 | 31.67° C | 66% | 1017 hPa | - | - | - | - |
| 1778046233 | 32.78° C | 66% | 1007 hPa | - | - | - | - |
| 1778045626 | 31.67° C | 66% | 1008 hPa | - | - | - | - |
| 1778045028 | 31.67° C | 66% | 1008 hPa | - | - | - | - |
| 1778044427 | 31.67° C | 66% | 1008 hPa | - | - | - | - |
| 1778043830 | 31.67° C | 66% | 1008 hPa | - | - | - | - |
| 1778042629 | 31.67° C | 66% | 1008 hPa | - | - | - | - |
| 1778041429 | 31.67° C | 66% | 1013 hPa | - | - | - | - |
| 1778040830 | 31.67° C | 66% | 1013 hPa | - | - | - | - |
| 1778040348 | 30.56° C | 70% | 1009 hPa | - | - | - | - |
* Rain since midnight (hover to see other rain measurements)
** Current wind speed in m/s (hover to see current wind gust speed)